Location: Kalispell
(48.1967°N, 114.3128°W)
Time: 07:08:06
(UTC-07:00)

Amateur Radio Satellites - All Passes

Search period start: 12 February 2016 06:38
Search period end: 13 February 2016 06:38
Location: Kalispell, 48.1967°N, 114.3128°W

Satellite Date Start Highest point End Downlink Frequencies (MHz)
Time Altitude Azimuth
Cosmos 2504 12 Feb 06:38:23 06:46:41 46° 290° (WNW) 06:55:12 435.465 / 435.565
YUBILEINY 12 Feb 06:50:42 06:54:31 13° 315° (NW) 06:58:22 435.215
BRITE-PL 12 Feb 06:58:57 07:03:23 37° 96° (E) 07:07:29 437.365/2234.400
CUTE-I 12 Feb 07:08:38 07:14:03 78° 104° (ESE) 07:19:26 437.470
O/OREOS (USA 219) 12 Feb 07:09:07 07:12:10 18° 101° (E) 07:15:14 437.305
DOVE 4 12 Feb 07:20:22 07:22:56 16° 89° (E) 07:25:29 437.250
HO-68 12 Feb 07:22:17 07:26:02 15° 85° (E) 07:29:45 435.675
Cubesat XI-IV 12 Feb 07:23:14 07:28:39 82° 287° (WNW) 07:34:03 437.490
STRAND 1 12 Feb 07:47:15 07:51:47 31° 265° (W) 07:56:21 437.568
AO-7 12 Feb 07:47:18 07:52:03 17° 323° (NW) 07:56:46 29.400- 29.500
GOMX 1 12 Feb 07:51:15 07:55:41 62° 101° (E) 07:59:51 467.674
Cosmos 2499 12 Feb 07:53:25 07:55:19 11° 67° (ENE) 07:57:12 435.465 / 435.565
SO-50 12 Feb 07:55:01 07:58:10 16° 338° (NNW) 08:01:18 436.795
CINEMA 3 12 Feb 07:55:49 07:57:45 13° 89° (E) 07:59:40 145.822/145.860
LilacSat-2 12 Feb 08:04:28 08:07:35 25° 293° (WNW) 08:10:41 437.200
PRISM 12 Feb 08:05:01 08:09:03 48° 260° (W) 08:13:09 437.425
CANX-2 12 Feb 08:10:47 08:14:23 25° 94° (E) 08:17:57 2200.000
GONETS M04 12 Feb 08:16:28 08:24:04 36° 83° (E) 08:31:43
BRITE-PL 12 Feb 08:37:43 08:41:45 28° 296° (WNW) 08:45:32 437.365/2234.400
Cosmos 2504 12 Feb 08:39:38 08:42:54 12° 317° (NW) 08:46:13 435.465 / 435.565
COMPASS 1 12 Feb 08:43:23 08:47:03 28° 94° (E) 08:50:42 437.405
O/OREOS (USA 219) 12 Feb 08:46:42 08:51:07 57° 300° (WNW) 08:55:36 437.305
CUTE-I 12 Feb 08:49:46 08:53:31 20° 303° (WNW) 08:57:15 437.470
ANTELSAT 12 Feb 08:55:04 08:57:57 18° 61° (ENE) 09:00:51 437.575/2403.000
DOVE 4 12 Feb 08:56:56 09:01:06 54° 288° (WNW) 09:05:08 437.250
CUTE 1.7 + AOD 2 12 Feb 09:00:29 09:04:48 72° 103° (ESE) 09:09:05 437.475
TIGRISAT 12 Feb 09:00:48 09:03:51 19° 62° (ENE) 09:06:54 435.000
SEEDS 12 Feb 09:02:06 09:06:19 57° 100° (E) 09:10:31 437.485
Oscar 11 12 Feb 09:03:50 09:06:45 17° 90° (E) 09:09:39 145.826/435.025
Cubesat XI-IV 12 Feb 09:04:52 09:07:56 16° 306° (NW) 09:10:59 437.490
HO-68 12 Feb 09:07:47 09:15:01 72° 105° (ESE) 09:22:12 435.675
AAUSAT CUBESAT 2 12 Feb 09:09:13 09:13:14 42° 98° (E) 09:17:14 437.432
UWE-3 12 Feb 09:15:07 09:18:34 24° 94° (E) 09:22:03 435.000/436.395/437.385
CUBEBUG 2 12 Feb 09:19:51 09:23:44 35° 97° (E) 09:27:39 437.445
POLYITAN 1 12 Feb 09:28:47 09:29:59 11° 56° (ENE) 09:31:12 437.675
QB50P2 12 Feb 09:29:03 09:30:28 12° 57° (ENE) 09:31:54 145.880/145.840
GOMX 1 12 Feb 09:30:29 09:33:16 17° 301° (WNW) 09:36:00 467.674
CINEMA 3 12 Feb 09:31:15 09:35:23 67° 287° (WNW) 09:39:32 145.822/145.860
AO-85 12 Feb 09:33:29 09:37:43 24° 112° (ESE) 09:42:04 145.980
Cosmos 2499 12 Feb 09:37:53 09:46:15 51° 89° (E) 09:54:43 435.465 / 435.565
SO-50 12 Feb 09:38:55 09:40:41 12° 3° (N) 09:42:28 436.795
PCSat 12 Feb 09:42:04 09:45:18 16° 105° (ESE) 09:48:32 145.827
UNISAT 6 12 Feb 09:45:07 09:49:17 52° 71° (ENE) 09:53:27 437.425
CANX-2 12 Feb 09:46:23 09:50:20 36° 291° (WNW) 09:54:16 2200.000
POPSAT HIP 1 12 Feb 09:56:13 09:59:14 19° 62° (ENE) 10:02:15 437.405
HUMSAT D 12 Feb 09:58:45 10:01:18 16° 90° (E) 10:03:51 437.325/437.525
NANOSAT C BR1 12 Feb 09:59:04 10:02:10 20° 62° (ENE) 10:05:15 145.865
DUCHIFAT 1 12 Feb 09:59:19 10:02:20 19° 62° (ENE) 10:05:21 145.980
DELFI C3 12 Feb 10:01:42 10:05:27 35° 97° (E) 10:09:11 145.870
ZACube-1 12 Feb 10:02:32 10:06:40 51° 100° (E) 10:10:51 437.345
QB50P1 12 Feb 10:08:03 10:11:31 25° 65° (ENE) 10:14:58 145.935-145.965
FUNcube-1 12 Feb 10:10:06 10:14:17 59° 101° (E) 10:18:31 145.935
GONETS M04 12 Feb 10:11:56 10:20:28 60° 286° (WNW) 10:29:08
RS-15 12 Feb 10:16:33 10:25:06 26° 101° (E) 10:33:54 29.354- 29.394
COMPASS 1 12 Feb 10:18:53 10:22:39 32° 293° (WNW) 10:26:25 437.405
AIST 1 12 Feb 10:28:35 10:32:44 41° 92° (E) 10:36:53
ANTELSAT 12 Feb 10:30:06 10:34:19 55° 259° (W) 10:38:31 437.575/2403.000
O/OREOS (USA 219) 12 Feb 10:30:12 10:31:35 11° 321° (NW) 10:32:57 437.305
TIGRISAT 12 Feb 10:36:04 10:40:15 50° 260° (W) 10:44:25 435.000
CUTE 1.7 + AOD 2 12 Feb 10:37:42 10:40:07 15° 300° (WNW) 10:42:33 437.475
SEEDS 12 Feb 10:38:47 10:41:39 18° 298° (WNW) 10:44:30 437.485
Oscar 11 12 Feb 10:38:58 10:43:14 55° 288° (WNW) 10:47:29 145.826/435.025
AAUSAT CUBESAT 2 12 Feb 10:45:15 10:48:31 22° 296° (WNW) 10:51:47 437.432
BUGSAT 1 12 Feb 10:48:12 10:51:54 32° 67° (ENE) 10:55:36 437.445
UWE-3 12 Feb 10:51:17 10:55:09 37° 291° (WNW) 10:59:06 435.000/436.395/437.385
CUBEBUG 1 12 Feb 10:55:09 10:55:30 10° 86° (E) 10:55:51 437.445
HO-68 12 Feb 10:56:12 11:02:10 29° 305° (NW) 11:08:07 435.675
DX 1 12 Feb 10:56:26 10:58:34 13° 89° (E) 11:00:41 434.975-435.025
CUBEBUG 2 12 Feb 10:56:48 11:00:15 25° 294° (WNW) 11:03:45 437.445
POLYITAN 1 12 Feb 11:00:53 11:05:07 83° 75° (ENE) 11:09:21 437.675
QB50P2 12 Feb 11:01:22 11:05:37 86° 75° (ENE) 11:09:52 145.880/145.840
AO-85 12 Feb 11:12:25 11:17:50 70° 311° (NW) 11:23:21 145.980
ESTCUBE 1 12 Feb 11:13:56 11:17:31 23° 93° (E) 11:21:05 437.505/2401.250
50 SAT 12 Feb 11:15:55 11:18:58 22° 94° (E) 11:21:59 437.505
SO-50 12 Feb 11:19:24 11:23:05 21° 28° (NNE) 11:26:41 436.795
CUSAT 1 12 Feb 11:20:49 11:24:52 18° 54° (NE) 11:28:16 437.405
PCSat 12 Feb 11:22:30 11:27:57 88° 301° (WNW) 11:33:26 145.827
UNISAT 6 12 Feb 11:23:27 11:26:21 18° 269° (W) 11:29:14 437.425
JAS-2 12 Feb 11:26:38 11:31:13 18° 53° (NE) 11:35:30 435.910
POPSAT HIP 1 12 Feb 11:30:36 11:34:43 50° 260° (W) 11:38:50 437.405
Cosmos 2499 12 Feb 11:31:12 11:39:34 45° 291° (WNW) 11:47:59 435.465 / 435.565
HUMSAT D 12 Feb 11:33:12 11:37:18 57° 288° (WNW) 11:41:26 437.325/437.525
NANOSAT C BR1 12 Feb 11:33:32 11:37:37 47° 260° (W) 11:41:42 145.865
DUCHIFAT 1 12 Feb 11:33:39 11:37:44 49° 260° (W) 11:41:51 145.980
DELFI C3 12 Feb 11:36:57 11:40:13 24° 295° (WNW) 11:43:28 145.870
ZACube-1 12 Feb 11:39:40 11:42:39 19° 297° (WNW) 11:45:38 437.345
QB50P1 12 Feb 11:43:13 11:47:09 37° 263° (W) 11:51:06 145.935-145.965
FUNcube-1 12 Feb 11:47:27 11:50:09 17° 299° (WNW) 11:52:54 145.935
VELOX 1 12 Feb 11:59:32 12:03:53 52° 100° (E) 12:08:11 145.980
Oscar 19 12 Feb 12:01:08 12:05:26 27° 62° (ENE) 12:09:45 437.125/150
AIST 1 12 Feb 12:07:02 12:10:31 22° 291° (WNW) 12:14:01
UKube-1 12 Feb 12:13:44 12:18:03 66° 102° (ESE) 12:22:21 .
GONETS M04 12 Feb 12:14:50 12:19:35 15° 311° (NW) 12:24:24
AISAT 12 Feb 12:16:42 12:21:09 81° 105° (ESE) 12:25:33 437.250
DANDE 12 Feb 12:16:44 12:23:09 33° 62° (ENE) 12:28:13 436.750
SPROUT 12 Feb 12:18:25 12:22:06 27° 95° (E) 12:25:45 437.525
TISAT 1 12 Feb 12:18:53 12:19:37 10° 87° (E) 12:20:20 437.305
BUGSAT 1 12 Feb 12:23:42 12:27:19 28° 265° (W) 12:30:54 437.445
RS-15 12 Feb 12:24:31 12:35:45 86° 126° (SE) 12:47:40 29.354- 29.394
CUBEBUG 1 12 Feb 12:28:05 12:32:30 88° 110° (ESE) 12:36:50 437.445
DX 1 12 Feb 12:30:55 12:35:17 72° 287° (WNW) 12:39:36 434.975-435.025
POLYITAN 1 12 Feb 12:40:24 12:41:32 11° 273° (W) 12:42:39 437.675
QB50P2 12 Feb 12:41:13 12:42:03 10° 273° (W) 12:42:54 145.880/145.840
50 SAT 12 Feb 12:49:37 12:53:03 33° 291° (WNW) 12:56:29 437.505
ESTCUBE 1 12 Feb 12:50:12 12:54:33 45° 291° (WNW) 12:58:52 437.505/2401.250
Gurwin Techsat 1B 12 Feb 12:54:50 12:59:30 32° 63° (ENE) 13:04:11 435.225
AO-85 12 Feb 12:55:05 12:59:20 22° 333° (NNW) 13:03:34 145.980
YUBILEINY 12 Feb 12:55:25 13:02:41 27° 60° (ENE) 13:09:51 435.215
SO-50 12 Feb 12:59:31 13:04:24 76° 50° (NE) 13:09:07 436.795
CUSAT 1 12 Feb 13:02:18 13:08:13 74° 262° (W) 13:12:36 437.405
PCSat 12 Feb 13:07:51 13:12:07 23° 326° (NW) 13:16:24 145.827
JAS-2 12 Feb 13:07:54 13:15:22 74° 72° (ENE) 13:22:05 435.910
AO-7 12 Feb 13:13:25 13:19:35 24° 45° (NE) 13:25:44 29.400- 29.500
Cosmos 2491 12 Feb 13:13:39 13:16:00 11° 68° (ENE) 13:18:23 435.465 / 435.565
ITAMSAT 1 12 Feb 13:16:16 13:20:36 28° 62° (ENE) 13:24:58 435.822/435.867
Cosmos 2499 12 Feb 13:32:26 13:35:31 12° 316° (NW) 13:38:36 435.465 / 435.565
VELOX 1 12 Feb 13:36:47 13:40:01 20° 299° (WNW) 13:43:14 145.980
SWISSCUBE 12 Feb 13:39:24 13:42:36 17° 90° (E) 13:45:47 437.505
Oscar 19 12 Feb 13:39:31 13:44:32 49° 261° (W) 13:49:33 437.125/150
UKube-1 12 Feb 13:50:58 13:53:39 16° 301° (WNW) 13:56:19 .
TISAT 1 12 Feb 13:51:41 13:55:54 85° 285° (WNW) 14:00:04 437.305
SPROUT 12 Feb 13:54:17 13:58:07 33° 293° (WNW) 14:01:56 437.525
AISAT 12 Feb 13:54:45 13:57:02 14° 303° (WNW) 13:59:20 437.250
DANDE 12 Feb 13:59:45 14:06:28 49° 269° (W) 14:11:36 436.750
CUBEBUG 1 12 Feb 14:06:10 14:08:09 13° 303° (WNW) 14:10:06 437.445
DX 1 12 Feb 14:10:00 14:10:41 10° 306° (NW) 14:11:23 434.975-435.025
ITUPSAT 1 12 Feb 14:17:00 14:21:23 34° 96° (E) 14:25:45 437.325
BEESAT 12 Feb 14:23:25 14:27:56 39° 98° (E) 14:32:25 436.000
Cosmos 2504 12 Feb 14:33:41 14:40:27 24° 57° (ENE) 14:46:53 435.465 / 435.565
Gurwin Techsat 1B 12 Feb 14:34:20 14:39:20 42° 262° (W) 14:44:24 435.225
RS-15 12 Feb 14:38:48 14:49:38 44° 335° (NNW) 15:01:02 29.354- 29.394
AO-85 12 Feb 14:39:13 14:41:52 13° 357° (N) 14:44:29 145.980
SO-50 12 Feb 14:41:09 14:44:19 18° 249° (WSW) 14:47:25 436.795
ISS 12 Feb 14:50:36 14:52:29 15° 136° (SE) 14:54:22 145.825
YUBILEINY 12 Feb 14:51:44 15:00:37 83° 264° (W) 15:09:26 435.215
ITAMSAT 1 12 Feb 14:54:49 14:59:50 48° 260° (W) 15:04:55 435.822/435.867
JAS-2 12 Feb 14:54:53 15:00:52 26° 269° (W) 15:06:27 435.910
PCSat 12 Feb 14:56:23 14:57:40 11° 351° (N) 14:58:57 145.827
M-CUBED/EXP-1 PRIME 12 Feb 14:57:45 15:00:51 30° 63° (ENE) 15:03:50 437.505
Cosmos 2491 12 Feb 15:02:20 15:10:45 56° 90° (E) 15:19:10 435.465 / 435.565
AO-7 12 Feb 15:02:49 15:11:09 77° 68° (ENE) 15:19:32 29.400- 29.500
AUBIESAT-1 12 Feb 15:04:50 15:07:55 30° 63° (ENE) 15:10:54 437.475
KKS-1 12 Feb 15:15:33 15:18:49 20° 92° (E) 15:22:04 437.445
SWISSCUBE 12 Feb 15:16:05 15:20:52 65° 288° (WNW) 15:25:36 437.505
TISAT 1 12 Feb 15:29:39 15:30:53 11° 304° (WNW) 15:32:07 437.305
MOZHAYETS 4 12 Feb 15:31:33 15:33:49 13° 87° (E) 15:36:05
O/OREOS (USA 219) 12 Feb 15:35:56 15:37:58 13° 41° (NE) 15:39:59 437.305
HORYU 2 12 Feb 15:43:40 15:47:57 52° 70° (ENE) 15:52:16 437.375
ITUPSAT 1 12 Feb 15:54:54 15:59:13 34° 295° (WNW) 16:03:32 437.325
BEESAT 12 Feb 16:01:28 16:05:36 29° 296° (WNW) 16:09:43 436.000
AO-85 12 Feb 16:20:48 16:24:31 18° 21° (NNE) 16:28:06 145.980
ISS 12 Feb 16:25:14 16:28:28 74° 154° (SSE) 16:31:43 145.825
STARS 12 Feb 16:26:02 16:30:21 54° 101° (E) 16:34:37 437.465
Cosmos 2504 12 Feb 16:26:27 16:35:11 89° 255° (WSW) 16:43:16 435.465 / 435.565
M-CUBED/EXP-1 PRIME 12 Feb 16:32:55 16:35:34 20° 259° (W) 16:38:09 437.505
BRITE-PL 12 Feb 16:37:22 16:39:51 13° 55° (NE) 16:42:18 437.365/2234.400
AUBIESAT-1 12 Feb 16:39:54 16:42:34 20° 259° (W) 16:45:10 437.475
PCSat 12 Feb 16:41:12 16:43:41 13° 18° (NNE) 16:46:09 145.827
YUBILEINY 12 Feb 16:50:14 16:56:01 20° 286° (WNW) 17:01:49 435.215
KKS-1 12 Feb 16:51:23 16:55:41 49° 290° (WNW) 16:59:56 437.445
RS-15 12 Feb 16:55:13 17:05:52 36° 8° (N) 17:16:53 29.354- 29.394
CUTE-I 12 Feb 16:55:19 16:59:52 29° 62° (ENE) 17:04:26 437.470
SWISSCUBE 12 Feb 16:56:36 16:57:45 11° 307° (NW) 16:58:54 437.505
AO-7 12 Feb 16:57:51 17:04:44 28° 268° (W) 17:11:40 29.400- 29.500
Cosmos 2491 12 Feb 16:59:56 17:07:56 39° 293° (WNW) 17:15:59 435.465 / 435.565
MOZHAYETS 4 12 Feb 17:06:54 17:11:34 80° 286° (WNW) 17:16:13
Cubesat XI-IV 12 Feb 17:09:38 17:14:30 37° 65° (ENE) 17:19:24 437.490
BEESAT 3 12 Feb 17:12:39 17:16:34 61° 123° (ESE) 17:20:31 437.485
O/OREOS (USA 219) 12 Feb 17:13:43 17:18:19 66° 62° (ENE) 17:22:53 437.305
LilacSat-2 12 Feb 17:15:43 17:18:54 26° 67° (ENE) 17:22:04 437.200
HORYU 2 12 Feb 17:21:45 17:24:50 19° 268° (W) 17:27:57 437.375
GOMX 1 12 Feb 17:26:22 17:29:37 17° 59° (ENE) 17:32:47 467.674
BEESAT 2 12 Feb 17:42:26 17:46:26 79° 127° (SE) 17:50:30 435.950
HO-68 12 Feb 17:55:17 18:00:10 20° 48° (NE) 18:05:03 435.675
CUBESAT XI-V 12 Feb 17:56:12 18:00:39 39° 97° (E) 18:05:02 437.345
AO-85 12 Feb 18:01:04 18:06:17 53° 45° (NE) 18:11:04 145.980
ISS 12 Feb 18:01:55 18:05:04 45° 354° (N) 18:08:13 145.825
STARS 12 Feb 18:03:16 18:06:22 19° 299° (WNW) 18:09:28 437.465
BRITE-PL 12 Feb 18:11:50 18:17:27 68° 73° (ENE) 18:22:50 437.365/2234.400
GONETS M04 12 Feb 18:21:15 18:27:54 23° 57° (ENE) 18:34:32
Cosmos 2504 12 Feb 18:21:18 18:27:17 22° 285° (WNW) 18:33:02 435.465 / 435.565
PCSat 12 Feb 18:23:49 18:28:47 34° 43° (NE) 18:33:43 145.827
CUTE 1.7 + AOD 2 12 Feb 18:24:38 18:25:32 11° 56° (NE) 18:26:25 437.475
AIST 2 12 Feb 18:25:05 18:28:34 26° 116° (ESE) 18:32:06 435.215
DOVE 4 12 Feb 18:28:23 18:32:36 29° 66° (ENE) 18:36:38 437.250
CUTE-I 12 Feb 18:34:35 18:39:43 47° 261° (W) 18:44:53 437.470
MOZHAYETS 4 12 Feb 18:46:09 18:48:00 12° 304° (NW) 18:49:50
Cubesat XI-IV 12 Feb 18:49:42 18:54:35 36° 264° (W) 18:59:31 437.490
LilacSat-2 12 Feb 18:49:50 18:53:09 28° 265° (W) 18:56:29 437.200
BEESAT 3 12 Feb 18:51:28 18:54:40 22° 324° (NW) 18:57:52 437.485
O/OREOS (USA 219) 12 Feb 18:54:21 18:57:12 16° 260° (W) 19:00:01 437.305
CINEMA 3 12 Feb 19:00:26 19:03:46 21° 63° (ENE) 19:07:01 145.822/145.860
GOMX 1 12 Feb 19:01:48 19:07:09 84° 257° (WSW) 19:12:13 467.674
CANX-2 12 Feb 19:07:04 19:10:41 29° 66° (ENE) 19:14:21 2200.000
RS-15 12 Feb 19:09:24 19:21:20 61° 40° (NE) 19:33:31 29.354- 29.394
BEESAT 2 12 Feb 19:21:51 19:24:50 19° 326° (NNW) 19:27:49 435.950
Cosmos 2499 12 Feb 19:25:34 19:32:06 24° 57° (ENE) 19:38:16 435.465 / 435.565
CUBESAT XI-V 12 Feb 19:33:54 19:37:54 28° 295° (WNW) 19:41:52 437.345
COMPASS 1 12 Feb 19:37:42 19:41:21 30° 67° (ENE) 19:45:01 437.405
ISS 12 Feb 19:38:37 19:41:51 56° 14° (NNE) 19:45:02 145.825
HO-68 12 Feb 19:39:39 19:46:48 76° 69° (ENE) 19:54:01 435.675
AO-85 12 Feb 19:42:08 19:46:32 29° 246° (WSW) 19:50:37 145.980
PRISM 12 Feb 19:43:53 19:46:47 18° 92° (E) 19:49:39 437.425
BRITE-PL 12 Feb 19:52:07 19:56:19 21° 270° (W) 20:00:25 437.365/2234.400
STRAND 1 12 Feb 19:53:08 19:58:19 68° 103° (ESE) 20:03:27 437.568
CUTE 1.7 + AOD 2 12 Feb 19:56:25 20:00:38 79° 75° (ENE) 20:04:54 437.475
SEEDS 12 Feb 19:57:08 20:01:16 62° 73° (ENE) 20:05:27 437.485
Oscar 11 12 Feb 20:02:03 20:05:21 22° 63° (ENE) 20:08:39 145.826/435.025
AAUSAT CUBESAT 2 12 Feb 20:02:52 20:06:48 44° 71° (ENE) 20:10:48 437.432
AIST 2 12 Feb 20:02:55 20:06:55 43° 315° (NW) 20:10:56 435.215
DOVE 4 12 Feb 20:05:31 20:10:12 40° 262° (W) 20:14:39 437.250
PCSat 12 Feb 20:07:09 20:12:24 51° 244° (WSW) 20:17:38 145.827
UWE-3 12 Feb 20:15:42 20:19:23 30° 67° (ENE) 20:23:01 435.000/436.395/437.385
GONETS M04 12 Feb 20:17:18 20:26:10 85° 79° (ENE) 20:35:03
CUBEBUG 2 12 Feb 20:21:24 20:25:29 46° 71° (ENE) 20:29:29 437.445
AIST 1 12 Feb 20:32:36 20:35:23 16° 65° (ENE) 20:38:10
CINEMA 3 12 Feb 20:36:16 20:40:40 49° 261° (W) 20:44:54 145.822/145.860
CANX-2 12 Feb 20:42:44 20:46:31 31° 265° (W) 20:50:19 2200.000
GOMX 1 12 Feb 20:43:37 20:45:53 13° 274° (W) 20:48:07 467.674
DELFI C3 12 Feb 20:51:25 20:55:02 34° 68° (ENE) 20:58:41 145.870
HUMSAT D 12 Feb 20:53:52 20:56:38 18° 62° (ENE) 20:59:25 437.325/437.525
ZACube-1 12 Feb 21:01:47 21:05:54 63° 73° (ENE) 21:10:01 437.345
FUNcube-1 12 Feb 21:09:05 21:13:13 72° 74° (ENE) 21:17:22 145.935
COMPASS 1 12 Feb 21:13:17 21:16:55 29° 265° (W) 21:20:36 437.405
ISS 12 Feb 21:15:10 21:18:15 40° 213° (SSW) 21:21:18 145.825
Cosmos 2499 12 Feb 21:18:04 21:26:34 89° 260° (W) 21:34:21 435.465 / 435.565
PRISM 12 Feb 21:18:21 21:22:25 49° 290° (WNW) 21:26:25 437.425
RS-15 12 Feb 21:22:17 21:33:56 56° 245° (WSW) 21:45:44 29.354- 29.394
VELOX 1 12 Feb 21:27:42 21:28:50 11° 55° (NE) 21:29:58 145.980
HO-68 12 Feb 21:29:36 21:35:14 24° 269° (W) 21:40:55 435.675
STRAND 1 12 Feb 21:33:15 21:37:00 21° 302° (WNW) 21:40:45 437.568
SEEDS 12 Feb 21:35:04 21:37:25 14° 271° (W) 21:39:46 437.485
CUTE 1.7 + AOD 2 12 Feb 21:35:38 21:37:04 11° 273° (W) 21:38:30 437.475
Oscar 11 12 Feb 21:37:06 21:41:13 45° 261° (W) 21:45:23 145.826/435.025
UKube-1 12 Feb 21:38:39 21:40:28 12° 56° (ENE) 21:42:18 .
AAUSAT CUBESAT 2 12 Feb 21:39:30 21:42:33 20° 268° (W) 21:45:37 437.432
AISAT 12 Feb 21:43:14 21:45:54 16° 59° (ENE) 21:48:33 437.250
AIST 2 12 Feb 21:44:39 21:46:29 12° 337° (NNW) 21:48:19 435.215
UWE-3 12 Feb 21:52:11 21:55:51 29° 265° (W) 21:59:30 435.000/436.395/437.385
CUBEBUG 1 12 Feb 21:53:16 21:55:54 16° 59° (ENE) 21:58:32 437.445
DX 1 12 Feb 21:55:01 21:58:12 20° 61° (ENE) 22:01:24 434.975-435.025
CUBEBUG 2 12 Feb 21:59:18 22:02:22 19° 268° (W) 22:05:24 437.445
50 SAT 12 Feb 22:00:00 22:02:43 19° 64° (ENE) 22:05:27 437.505
AIST 1 12 Feb 22:09:08 22:13:26 58° 265° (W) 22:17:39
GONETS M04 12 Feb 22:15:24 22:21:55 24° 283° (WNW) 22:28:27
ESTCUBE 1 12 Feb 22:16:44 22:20:45 32° 66° (ENE) 22:24:48 437.505/2401.250
ANTELSAT 12 Feb 22:18:20 22:21:48 22° 93° (E) 22:25:17 437.575/2403.000
TIGRISAT 12 Feb 22:23:58 22:27:32 24° 94° (E) 22:31:07 435.000
DELFI C3 12 Feb 22:26:50 22:30:02 23° 267° (W) 22:33:17 145.870
HUMSAT D 12 Feb 22:27:59 22:31:57 51° 260° (W) 22:35:57 437.325/437.525
ZACube-1 12 Feb 22:40:26 22:42:38 14° 271° (W) 22:44:50 437.345
POLYITAN 1 12 Feb 22:45:06 22:45:48 10° 87° (E) 22:46:29 437.675
QB50P2 12 Feb 22:45:13 22:46:18 11° 87° (E) 22:47:23 145.880/145.840
FUNcube-1 12 Feb 22:48:18 22:50:00 12° 272° (W) 22:51:41 145.935
VELOX 1 12 Feb 23:00:05 23:04:31 73° 73° (ENE) 23:08:59 145.980
UNISAT 6 12 Feb 23:09:23 23:13:44 71° 102° (ESE) 23:18:10 437.425
UKube-1 12 Feb 23:11:31 23:15:52 88° 77° (ENE) 23:20:15 .
POPSAT HIP 1 12 Feb 23:12:24 23:15:31 20° 92° (E) 23:18:37 437.405
Cosmos 2499 12 Feb 23:12:43 23:18:23 21° 285° (WNW) 23:23:48 435.465 / 435.565
TISAT 1 12 Feb 23:13:23 23:15:42 15° 59° (ENE) 23:18:00 437.305
DUCHIFAT 1 12 Feb 23:14:51 23:17:56 20° 92° (E) 23:21:00 145.980
NANOSAT C BR1 12 Feb 23:14:54 23:18:04 21° 93° (E) 23:21:14 145.865
SPROUT 12 Feb 23:15:29 23:19:21 34° 68° (ENE) 23:23:14 437.525
AISAT 12 Feb 23:17:24 23:21:51 73° 257° (WSW) 23:26:21 437.250
QB50P1 12 Feb 23:24:23 23:27:58 26° 95° (E) 23:31:30 145.935-145.965
CUBEBUG 1 12 Feb 23:27:14 23:31:39 73° 256° (WSW) 23:36:07 437.445
DX 1 12 Feb 23:29:46 23:34:03 52° 259° (W) 23:38:23 434.975-435.025
50 SAT 12 Feb 23:33:03 23:36:31 37° 262° (W) 23:40:01 437.505
RS-15 12 Feb 23:38:38 23:43:28 13° 269° (W) 23:48:20 29.354- 29.394
BEESAT 3 12 Feb 23:49:50 23:52:55 21° 35° (NE) 23:55:57 437.485
ESTCUBE 1 12 Feb 23:53:29 23:57:33 32° 264° (W) 00:01:39 437.505/2401.250
ANTELSAT 12 Feb 23:54:35 23:58:42 42° 291° (WNW) 00:02:53 437.575/2403.000
BEESAT 12 Feb 23:59:38 00:00:58 11° 53° (NE) 00:02:18 436.000
TIGRISAT 13 Feb 00:00:19 00:04:21 39° 291° (WNW) 00:08:28 435.000
BUGSAT 1 13 Feb 00:01:33 00:05:10 31° 96° (E) 00:08:44 437.445
POLYITAN 1 13 Feb 00:18:00 00:22:14 86° 285° (WNW) 00:26:27 437.675
QB50P2 13 Feb 00:18:29 00:22:43 83° 288° (WNW) 00:26:56 145.880/145.840
BEESAT 2 13 Feb 00:20:08 00:23:30 25° 38° (NE) 00:26:50 435.950
CUSAT 1 13 Feb 00:26:23 00:32:21 23° 82° (E) 00:38:06 437.405
VELOX 1 13 Feb 00:39:15 00:41:31 14° 271° (W) 00:43:49 145.980
TISAT 1 13 Feb 00:46:38 00:50:51 72° 257° (WSW) 00:55:05 437.305
UNISAT 6 13 Feb 00:47:26 00:49:59 15° 300° (WNW) 00:52:33 437.425
POPSAT HIP 1 13 Feb 00:47:32 00:51:33 44° 290° (WNW) 00:55:32 437.405
SWISSCUBE 13 Feb 00:49:02 00:53:10 30° 64° (ENE) 00:57:21 437.505
DUCHIFAT 1 13 Feb 00:49:53 00:53:53 44° 290° (WNW) 00:57:52 145.980
NANOSAT C BR1 13 Feb 00:50:03 00:54:01 43° 291° (WNW) 00:58:00 145.865
UKube-1 13 Feb 00:51:34 00:52:34 11° 273° (W) 00:53:34 .
SPROUT 13 Feb 00:51:43 00:55:23 27° 265° (W) 00:59:03 437.525
QB50P1 13 Feb 01:00:01 01:03:49 33° 292° (WNW) 01:07:35 145.935-145.965
AIST 2 13 Feb 01:04:56 01:07:15 14° 26° (NNE) 01:09:33 435.215
Cosmos 2491 13 Feb 01:07:57 01:15:46 34° 65° (ENE) 01:23:32 435.465 / 435.565
PHONESAT 2.4 13 Feb 01:16:25 01:18:45 18° 169° (S) 01:21:06 2401.200-2431.200
DANDE 13 Feb 01:26:52 01:34:09 37° 86° (E) 01:41:37 436.750
ITUPSAT 1 13 Feb 01:27:03 01:31:44 58° 71° (ENE) 01:36:28 437.325
BEESAT 3 13 Feb 01:27:07 01:31:04 68° 236° (SW) 01:34:59 437.485
BEESAT 13 Feb 01:33:09 01:37:52 68° 73° (ENE) 01:42:39 436.000
BUGSAT 1 13 Feb 01:37:05 01:40:29 27° 294° (WNW) 01:43:53 437.445
Oscar 19 13 Feb 01:47:11 01:52:07 45° 98° (E) 01:57:00 437.125/150
STARS 13 Feb 01:53:32 01:54:43 11° 55° (NE) 01:55:53 437.465
POLYITAN 1 13 Feb 01:56:01 01:57:23 11° 303° (WNW) 01:58:45 437.675
QB50P2 13 Feb 01:56:39 01:57:51 11° 304° (WNW) 01:59:02 145.880/145.840
BEESAT 2 13 Feb 01:57:44 02:01:39 52° 238° (WSW) 02:05:30 435.950
JAS-2 13 Feb 01:59:30 02:04:50 41° 97° (E) 02:09:46 435.910
YUBILEINY 13 Feb 02:02:47 02:09:27 25° 78° (ENE) 02:16:10 435.215
CUSAT 1 13 Feb 02:05:40 02:13:51 89° 101° (E) 02:21:35 437.405
KKS-1 13 Feb 02:16:51 02:20:41 29° 65° (ENE) 02:24:32 437.445
SWISSCUBE 13 Feb 02:26:28 02:30:53 37° 263° (W) 02:35:21 437.505
MOZHAYETS 4 13 Feb 02:36:36 02:39:56 20° 61° (ENE) 02:43:17
AIST 2 13 Feb 02:42:32 02:46:38 56° 48° (NE) 02:50:42 435.215
Gurwin Techsat 1B 13 Feb 02:46:19 02:51:37 59° 101° (ESE) 02:56:51 435.225
PHONESAT 2.4 13 Feb 02:52:53 02:55:24 20° 186° (S) 02:57:55 2401.200-2431.200
AO-7 13 Feb 03:01:42 03:07:18 19° 87° (E) 03:12:51 29.400- 29.500
ITAMSAT 1 13 Feb 03:03:43 03:08:46 45° 99° (E) 03:13:46 435.822/435.867
Cosmos 2491 13 Feb 03:04:36 03:13:13 65° 267° (W) 03:21:50 435.465 / 435.565
ITUPSAT 1 13 Feb 03:06:35 03:09:58 19° 269° (W) 03:13:24 437.325
DANDE 13 Feb 03:08:37 03:16:46 63° 287° (WNW) 03:25:06 436.750
BEESAT 13 Feb 03:13:09 03:16:09 17° 270° (W) 03:19:11 436.000
Cosmos 2504 13 Feb 03:19:06 03:24:09 17° 72° (ENE) 03:29:15 435.465 / 435.565
SO-50 13 Feb 03:21:14 03:21:57 10° 106° (ESE) 03:22:40 436.795
STARS 13 Feb 03:25:56 03:30:20 76° 74° (ENE) 03:34:44 437.465
Oscar 19 13 Feb 03:26:54 03:31:16 29° 297° (WNW) 03:35:37 437.125/150
JAS-2 13 Feb 03:44:51 03:49:50 32° 299° (WNW) 03:54:28 435.910
CUSAT 1 13 Feb 03:50:30 03:57:01 26° 300° (WNW) 04:03:09 437.405
KKS-1 13 Feb 03:53:07 03:57:12 34° 263° (W) 04:01:17 437.445
YUBILEINY 13 Feb 03:56:25 04:05:14 82° 280° (W) 04:14:10 435.215
M-CUBED/EXP-1 PRIME 13 Feb 04:09:03 04:10:23 12° 97° (E) 04:11:43 437.505
MOZHAYETS 4 13 Feb 04:12:15 04:16:44 56° 260° (W) 04:21:17
AUBIESAT-1 13 Feb 04:15:34 04:16:55 12° 97° (E) 04:18:19 437.475
AIST 2 13 Feb 04:21:48 04:24:46 19° 247° (WSW) 04:27:44 435.215
Gurwin Techsat 1B 13 Feb 04:26:59 04:31:11 24° 300° (WNW) 04:35:22 435.225
PHONESAT 2.4 13 Feb 04:31:01 04:31:56 11° 202° (SSW) 04:32:52 2401.200-2431.200
ITAMSAT 1 13 Feb 04:43:33 04:48:04 30° 297° (WNW) 04:52:33 435.822/435.867
AO-7 13 Feb 04:52:58 05:01:22 81° 108° (ESE) 05:09:41 29.400- 29.500
DANDE 13 Feb 04:55:53 05:01:26 19° 308° (NW) 05:06:57 436.750
SO-50 13 Feb 04:56:39 05:01:31 66° 124° (SE) 05:06:28 436.795
CUBESAT XI-V 13 Feb 05:02:42 05:07:19 57° 72° (ENE) 05:11:58 437.345
Cosmos 2491 13 Feb 05:04:12 05:08:13 14° 290° (WNW) 05:12:15 435.465 / 435.565
STARS 13 Feb 05:05:15 05:07:14 13° 271° (W) 05:09:15 437.465
Cosmos 2504 13 Feb 05:07:15 05:15:53 71° 94° (E) 05:24:45 435.465 / 435.565
HORYU 2 13 Feb 05:07:15 05:11:41 64° 102° (ESE) 05:16:07 437.375
Cubesat XI-IV 13 Feb 05:26:07 05:26:49 10° 84° (E) 05:27:31 437.490
STRAND 1 13 Feb 05:35:07 05:39:03 23° 59° (ENE) 05:42:59 437.568
M-CUBED/EXP-1 PRIME 13 Feb 05:41:59 05:45:19 56° 293° (WNW) 05:48:51 437.505
AUBIESAT-1 13 Feb 05:48:24 05:51:48 58° 293° (WNW) 05:55:23 437.475
YUBILEINY 13 Feb 05:57:07 06:03:36 22° 304° (NW) 06:10:08 435.215
BRITE-PL 13 Feb 06:15:09 06:17:45 15° 86° (E) 06:20:14 437.365/2234.400
LilacSat-2 13 Feb 06:19:36 06:22:39 23° 94° (E) 06:25:42 437.200
